Theta_e
317 320 321 320 324 326 329 333 334 334 333 332 330 330 337 337 340 345 350 348 349 359 359 347 350 353 346 338 336 335 337 341 340 337 335 330 325 328 330 327 328 330 329 332 333 333 329 333 339
321 322 319 322 324 326 329 330 333 333 332 329 329 330 331 340 337 341 340 346 353 359 363 352 353 352 342 338 337 336 337 340 339 337 336 330 327 328 330 327 327 332 332 334 339 339 339 339 337
314 323 323 324 325 325 327 329 330 331 328 328 329 327 328 337 337 342 344 349 352 360 365 359 353 349 342 338 337 336 336 337 337 337 335 330 329 329 329 327 324 331 333 337 340 340 338 334 327
321 321 322 324 325 327 327 327 326 326 325 325 327 328 332 335 336 339 344 351 353 360 362 360 352 348 341 338 338 336 335 334 336 336 334 330 331 331 328 326 322 329 333 333 330 330 330 328 329
319 323 324 324 324 326 326 325 324 325 324 324 324 326 327 329 334 339 345 351 355 359 361 359 351 347 342 338 337 337 332 331 333 332 333 331 331 332 328 323 324 329 331 326 325 325 325 323 321
321 321 324 323 324 326 326 324 324 325 324 324 323 324 325 326 327 334 343 349 354 357 361 360 352 346 341 339 336 335 330 326 327 328 329 329 330 330 327 323 326 329 328 327 325 325 323 321 322
321 323 323 323 324 325 326 325 324 324 324 325 324 324 324 324 323 332 338 350 358 360 361 359 354 345 341 339 336 333 329 325 323 324 323 324 327 327 326 323 325 327 328 327 325 327 323 324 324
320 323 323 324 323 324 325 324 322 323 324 323 322 324 325 323 321 326 337 347 355 360 362 360 356 347 341 339 336 333 329 326 322 321 322 324 326 325 326 322 324 326 328 326 330 326 323 323 322
317 320 322 322 323 323 324 323 322 320 320 320 321 321 322 321 320 324 329 340 351 358 357 359 356 352 347 345 338 333 330 327 324 321 322 324 330 325 324 324 332 327 327 327 329 324 323 322 322
317 319 320 321 322 322 323 321 320 319 320 319 320 319 319 319 320 322 324 327 341 354 358 356 357 353 349 347 343 333 331 329 326 323 322 325 339 334 339 338 333 329 329 327 324 323 322 322 329
318 318 319 319 318 318 318 318 318 318 319 319 319 319 319 319 319 320 322 324 329 345 355 356 356 354 351 349 348 344 343 339 337 337 325 337 341 340 341 345 335 330 325 326 335 332 333 337 338
318 318 317 317 317 317 318 317 318 318 318 318 318 318 318 318 319 319 320 322 324 332 347 348 355 358 353 350 349 347 346 344 343 343 335 339 343 345 343 342 340 340 340 337 341 338 339 341 342
317 318 317 317 316 316 316 316 317 316 316 316 316 317 317 317 318 319 319 320 322 326 335 350 352 352 356 352 350 348 347 346 345 346 345 343 344 344 342 341 340 340 339 340 339 338 342 344 344
317 317 317 316 316 317 317 317 317 317 316 315 315 315 316 317 317 318 318 319 321 324 329 342 348 353 353 354 350 351 349 348 346 346 347 345 344 341 342 342 341 339 339 339 340 341 344 346 344
317 317 318 318 318 318 317 318 318 317 317 317 316 315 316 317 318 318 319 319 319 321 326 333 349 349 353 352 351 351 351 349 347 346 346 346 343 340 341 341 340 337 339 342 344 347 347 346 345
318 319 320 320 319 318 318 319 319 318 318 319 318 317 318 317 317 318 318 318 319 320 323 329 336 350 349 353 354 353 352 350 348 346 346 346 342 342 340 340 338 337 343 345 345 346 344 344 345
319 319 320 320 320 319 319 319 319 318 319 320 320 320 319 319 317 317 318 318 317 320 321 327 335 345 350 350 352 353 352 351 349 347 347 346 344 342 338 337 337 344 344 344 345 345 345 345 345
320 319 319 319 319 319 319 319 319 318 319 319 319 319 319 320 319 318 318 318 317 320 321 324 332 343 351 350 351 351 351 351 350 348 347 346 343 340 329 335 339 345 344 344 345 346 345 346 347
318 318 318 318 318 318 319 319 319 320 320 320 320 320 320 320 320 319 318 318 318 319 321 324 330 337 348 350 351 352 351 351 351 349 347 346 335 327 322 334 345 342 344 344 347 346 347 347 344
316 316 317 317 318 319 319 319 320 320 321 321 320 320 320 320 320 320 319 318 319 318 321 324 327 331 340 347 347 350 351 350 350 349 347 338 331 326 321 339 343 343 344 347 347 347 345 344 338
317 317 317 317 318 318 318 320 321 322 322 320 320 320 320 320 321 320 320 319 319 319 319 323 327 332 330 336 347 349 351 349 349 348 347 343 333 334 331 347 346 344 344 346 345 347 342 344 337
317 316 317 317 318 319 320 321 320 321 321 322 321 321 321 321 321 321 320 320 319 318 318 322 324 332 338 342 345 348 351 349 348 348 347 344 334 337 345 345 349 344 345 346 344 341 342 337 336
317 317 317 318 319 320 319 320 320 321 322 323 321 320 319 321 321 321 320 320 320 319 318 319 323 331 338 341 343 347 349 349 348 347 346 343 335 332 345 347 343 343 346 340 337 337 331 328 329
317 317 318 319 319 320 320 320 322 321 322 322 321 320 320 319 319 319 320 320 319 319 319 319 321 328 337 342 344 346 348 347 348 347 345 342 341 343 346 347 345 339 340 338 337 331 327 324 323
319 319 321 322 322 323 324 323 322 322 322 321 321 320 320 320 319 319 319 319 319 319 318 319 320 323 333 340 342 344 347 348 346 346 347 341 344 346 345 345 339 340 339 337 330 328 328 325 322
317 317 319 322 322 322 320 322 322 321 319 319 320 320 320 320 320 320 320 320 319 319 319 319 319 321 328 338 341 344 342 345 347 346 345 344 346 344 346 341 341 340 338 333 328 328 327 325 321
318 319 319 323 324 323 322 321 321 320 319 320 320 320 320 321 321 321 321 321 321 322 321 321 321 321 326 337 339 343 342 344 346 345 345 343 343 341 340 342 340 338 335 331 329 329 325 319 314
319 318 321 323 327 325 322 322 323 321 319 320 321 320 320 320 320 320 320 320 321 322 323 324 325 323 325 333 338 340 342 342 346 345 344 340 337 338 342 340 335 335 334 331 330 322 318 314 312
319 319 318 318 320 324 323 321 321 321 320 319 319 319 320 319 319 319 319 320 320 320 321 322 324 324 324 329 337 338 343 342 344 347 345 340 340 342 339 335 333 334 332 329 323 319 313 312 311
317 318 318 324 323 322 325 326 320 320 320 319 319 318 318 318 318 318 318 319 319 320 320 321 323 325 323 324 334 337 343 342 342 345 342 340 341 340 336 336 334 333 328 322 316 314 312 311 309
Wind_Speed
1 5 5 8 8 8 17 18 14 1 6 1 5 8 14 13 14 5 7 12 6 3 8 24 22 19 19 17 16 14 16 17 14 12 10 9 11 13 12 12 13 12 12 11 9 7 8 8 4
3 6 8 13 9 14 14 18 10 8 8 7 7 8 9 12 12 6 9 17 7 5 9 25 23 21 20 17 16 14 14 16 15 12 9 9 12 12 12 12 13 13 12 9 8 8 7 5 4
2 8 14 7 15 16 16 11 1 6 3 7 5 2 6 6 11 8 13 12 4 7 11 19 24 22 20 18 16 15 13 15 15 13 10 10 12 12 13 12 13 13 11 9 7 7 6 5 4
4 8 13 11 19 17 18 6 4 6 8 6 6 8 6 4 7 10 12 10 2 6 10 20 24 23 20 19 16 14 12 12 15 13 11 11 13 13 13 13 13 13 10 8 6 6 5 5 6
8 13 13 17 21 21 1 7 2 10 11 6 5 13 3 4 6 10 11 8 2 6 14 15 25 24 21 19 17 13 13 12 13 12 12 13 13 13 13 13 13 13 10 7 5 5 5 6 6
13 12 14 16 22 19 5 4 9 13 11 8 7 13 5 3 7 10 10 7 1 7 15 16 24 25 22 19 17 15 13 12 13 13 13 13 14 13 13 12 13 12 9 7 6 7 7 6 7
14 12 17 22 21 18 8 7 11 15 14 9 7 7 7 3 8 9 9 7 2 4 15 14 19 27 24 21 19 17 14 13 14 14 14 14 14 14 13 13 13 11 9 8 8 8 7 7 7
14 12 21 19 16 18 4 7 7 9 14 10 5 8 12 8 9 7 7 5 3 6 9 12 18 27 26 24 21 18 15 14 14 14 14 15 15 15 14 14 13 12 10 9 9 8 8 8 9
10 10 14 18 17 15 6 7 10 8 13 16 17 14 15 13 8 7 5 3 2 5 15 16 19 20 20 20 24 20 18 16 15 14 14 14 13 14 13 12 12 11 10 9 9 8 8 9 9
11 12 17 10 14 11 16 10 12 16 15 18 18 17 16 11 8 8 8 6 4 6 10 18 21 22 21 19 22 22 20 18 17 17 16 14 12 11 9 12 13 12 10 9 8 8 8 8 5
11 13 13 11 9 9 17 19 18 18 18 18 19 18 13 12 13 12 10 7 8 4 14 14 22 25 23 21 19 18 17 17 16 16 17 15 13 12 12 9 12 11 9 7 7 7 6 5 6
12 17 12 14 7 13 16 21 23 22 22 21 19 17 18 19 19 16 12 11 7 8 9 16 20 22 26 23 20 19 18 17 17 17 18 17 15 14 13 10 8 8 9 5 8 6 8 7 5
15 15 8 13 16 18 21 22 23 28 25 24 23 21 22 21 20 18 15 13 12 10 9 12 22 28 27 23 22 21 19 20 18 18 18 18 15 15 14 12 11 9 9 9 7 7 8 5 6
16 13 17 19 21 19 17 20 21 27 23 22 24 25 24 22 22 21 20 18 15 14 12 13 16 23 32 25 24 23 21 20 20 18 18 19 16 17 14 14 13 11 10 8 8 7 7 6 6
12 18 19 19 16 12 15 21 21 28 25 21 25 20 22 24 24 25 24 23 19 15 16 16 18 18 30 33 27 26 22 20 20 18 19 19 17 19 16 14 13 12 11 11 10 8 5 5 6
19 19 17 18 9 15 13 21 19 19 11 19 20 21 22 24 25 24 24 24 23 21 18 18 17 21 25 33 30 25 23 22 20 19 18 19 19 17 17 14 13 12 10 8 8 7 7 7 7
17 16 17 15 15 11 17 23 21 21 15 20 22 24 25 23 25 26 25 23 23 19 20 20 20 21 27 30 34 30 26 23 21 19 19 19 19 18 16 14 13 14 10 9 8 8 7 7 8
20 21 21 21 21 21 20 24 23 28 26 27 29 28 26 25 25 24 24 23 23 21 19 22 21 21 25 30 32 32 29 26 23 22 20 22 19 19 18 16 15 15 10 10 9 9 8 8 8
21 21 23 22 22 23 22 23 24 26 27 26 28 30 29 28 25 23 24 22 23 21 18 18 22 24 23 29 32 34 34 30 25 23 23 22 21 20 19 16 17 15 12 10 11 7 7 5 8
21 23 25 26 25 17 21 26 27 26 24 28 27 28 29 27 25 24 24 24 24 23 19 18 19 24 27 23 32 35 33 29 26 23 25 24 22 20 20 17 14 15 11 10 9 10 6 5 9
21 22 24 23 22 22 21 29 26 16 7 10 16 20 24 25 25 23 23 25 24 24 22 20 18 20 23 26 26 34 31 29 29 26 23 24 24 21 20 19 14 16 13 10 13 6 5 4 8
22 20 22 22 19 19 20 18 21 21 17 9 11 13 18 19 21 21 23 25 25 25 23 19 18 19 22 22 31 32 35 34 31 29 24 24 26 23 20 21 18 15 11 14 10 7 6 8 3
19 17 17 20 21 21 22 14 17 14 14 12 4 4 10 14 13 17 21 23 25 25 23 22 18 18 20 24 29 32 36 34 29 30 27 26 28 25 22 22 22 20 14 16 8 6 7 9 4
10 16 21 21 20 18 23 20 17 9 4 2 9 4 7 8 7 12 16 21 23 23 23 22 19 18 18 20 23 32 34 39 31 33 31 26 24 26 24 22 21 19 16 12 10 8 6 4 2
10 16 10 9 11 15 11 5 11 3 8 8 9 9 7 8 9 8 9 16 19 23 23 22 21 20 19 20 22 31 32 33 32 33 29 30 27 26 29 29 22 19 14 11 9 9 2 1 1
20 15 10 14 12 19 13 9 2 2 1 3 6 9 12 6 11 5 6 7 11 17 20 21 21 19 21 20 22 25 35 32 34 34 33 33 35 32 34 28 22 19 16 12 11 4 4 4 3
6 8 8 10 20 17 16 20 18 6 7 7 0 6 3 2 2 4 3 4 8 9 8 12 16 19 22 20 21 25 29 34 36 37 38 38 29 34 30 25 18 16 13 10 8 6 4 1 2
15 14 7 5 5 13 13 6 4 2 2 4 4 0 1 4 4 4 4 6 6 9 12 12 13 17 20 20 19 21 28 34 37 37 42 39 38 34 33 26 14 13 12 11 9 6 4 3 3
8 12 13 11 10 8 13 7 2 3 13 9 6 1 8 8 9 9 11 12 11 12 12 12 11 14 20 19 18 20 24 35 35 39 38 41 41 42 31 20 19 18 16 13 9 6 6 5 4
19 19 16 7 15 13 12 15 20 16 9 6 10 7 11 13 17 18 18 20 18 16 14 13 12 12 16 20 18 19 22 29 38 38 42 44 47 32 25 23 24 19 16 13 11 9 7 6 6
Wind_Direction
236 301 263 240 243 231 252 244 256 39 215 145 329 283 358 22 12 41 58 18 10 193 221 183 185 180 185 181 179 181 183 185 183 175 172 154 150 152 158 161 162 162 163 167 169 168 172 182 200
170 244 227 258 246 251 244 234 232 236 57 4 280 268 253 105 35 58 360 349 325 174 196 188 186 186 185 181 181 180 181 187 186 180 180 164 158 157 164 166 168 168 169 170 178 177 182 198 225
195 227 254 229 234 253 267 300 62 166 40 295 283 357 356 27 26 360 341 345 329 175 189 193 186 187 185 181 183 183 186 192 187 187 184 173 166 165 171 173 175 175 176 179 183 192 204 214 228
230 222 252 253 254 249 254 345 5 326 248 245 279 267 120 69 4 345 342 345 346 187 189 205 190 185 190 185 185 187 191 195 192 192 188 177 174 175 178 180 180 179 183 186 193 204 217 232 239
231 256 246 244 248 259 189 319 3 269 266 252 220 260 158 108 8 354 351 355 338 192 197 212 192 188 188 191 189 191 192 197 200 197 192 184 181 184 184 184 181 181 186 191 194 205 227 243 254
238 248 247 248 246 244 188 170 274 264 255 257 252 260 274 98 359 352 352 350 350 194 211 210 200 191 190 193 197 195 191 194 201 199 198 192 188 188 189 188 187 190 193 204 219 227 239 245 254
252 253 253 266 271 272 214 141 254 251 245 238 353 281 244 126 1 340 344 349 121 137 189 215 209 191 190 195 198 198 194 194 199 200 198 197 195 193 193 194 194 197 204 216 228 239 245 262 275
280 269 269 262 261 267 159 148 252 276 271 295 303 254 238 20 344 330 324 336 338 195 173 188 185 192 192 193 196 199 196 196 197 200 197 198 198 196 198 197 201 207 214 223 234 247 262 280 289
255 259 256 260 252 240 189 191 269 231 278 275 265 270 280 303 310 313 296 294 309 184 218 171 183 189 187 190 197 195 197 195 194 196 198 196 195 196 202 198 210 219 226 233 248 264 277 287 289
255 256 265 8 343 327 301 327 284 288 264 267 256 260 262 263 280 292 292 290 270 225 200 183 188 187 187 194 197 193 196 196 194 194 193 185 190 188 193 224 216 225 230 240 257 270 285 293 331
274 266 319 323 296 299 290 286 279 270 268 260 269 274 263 274 273 273 273 272 278 214 207 206 199 185 192 195 195 185 189 188 187 189 191 171 194 191 187 224 229 224 233 251 292 298 317 308 273
280 268 288 282 275 265 273 283 279 274 271 276 278 271 264 270 265 260 261 259 259 244 242 218 206 200 191 201 191 192 191 189 189 193 191 182 189 198 191 209 208 211 240 215 238 250 252 249 260
258 276 271 269 271 265 275 274 279 272 271 269 267 257 255 261 261 258 255 253 247 248 234 243 215 205 199 197 190 196 196 194 192 196 195 194 190 198 196 204 205 220 213 236 226 240 250 256 277
312 296 281 278 269 265 268 273 275 273 267 262 260 258 257 258 258 256 254 247 243 244 236 226 237 219 198 199 194 197 198 200 192 199 200 194 193 200 198 200 208 214 216 225 232 240 244 264 268
280 281 275 261 254 273 273 276 263 265 259 264 262 255 255 256 254 255 253 251 248 241 234 226 225 228 210 202 197 199 204 203 198 200 202 193 196 212 190 201 203 211 216 213 220 232 252 254 262
262 257 271 279 199 236 269 274 279 288 241 258 258 255 258 255 255 256 253 248 245 245 234 231 220 224 221 210 204 199 206 204 204 200 202 198 198 202 193 203 202 204 208 221 221 233 238 241 254
258 253 270 289 298 287 253 276 282 279 263 264 260 267 267 258 252 251 252 251 243 238 234 231 229 221 221 220 208 202 206 204 206 202 201 200 198 198 194 198 201 198 203 215 220 226 237 249 269
310 306 300 295 296 292 285 280 281 273 263 262 265 268 261 257 251 247 246 249 236 232 229 230 226 221 227 223 215 209 203 203 205 203 201 201 193 197 193 196 191 204 195 214 218 228 243 245 273
291 283 284 285 284 277 276 277 277 277 273 265 261 262 259 253 251 245 241 241 232 231 227 230 226 219 221 222 218 211 204 202 201 201 195 200 195 203 199 188 195 191 199 206 221 237 241 260 292
286 284 278 275 278 292 296 292 286 277 265 259 260 259 256 255 245 239 235 233 233 233 228 234 231 228 219 229 225 218 210 203 202 200 198 197 203 203 192 182 201 201 202 203 215 216 211 277 297
280 278 281 291 301 298 281 267 262 253 223 254 249 256 256 257 252 240 230 228 231 230 230 230 232 240 241 223 237 220 208 206 202 197 198 193 196 191 183 176 192 208 175 207 207 209 225 258 293
284 291 300 300 298 281 298 297 291 279 275 252 259 258 256 253 249 248 239 227 226 229 231 228 232 233 230 233 229 219 213 204 198 196 195 191 191 187 176 184 188 193 173 203 192 209 191 204 258
294 295 294 289 275 281 274 266 273 255 228 199 146 275 289 268 255 255 237 236 225 230 233 230 229 234 229 226 232 221 215 205 197 196 194 190 189 189 182 184 194 183 178 201 208 220 195 198 156
280 281 269 264 261 259 264 251 258 263 95 159 192 256 287 270 303 275 247 234 233 229 231 231 226 232 233 233 228 223 217 215 204 192 189 186 180 177 185 184 186 175 189 191 197 178 175 163 123
246 285 313 289 259 232 358 310 265 329 239 328 320 310 276 289 258 270 249 240 233 231 233 234 231 232 236 235 228 223 214 211 207 195 186 178 178 181 188 189 184 178 185 181 160 157 162 214 258
288 279 267 290 307 315 309 267 124 323 251 282 306 291 270 249 274 264 295 279 242 227 235 237 243 237 231 232 234 232 222 216 211 198 187 179 183 185 191 189 174 176 182 179 168 179 216 265 286
293 261 283 263 264 269 273 265 255 204 182 163 287 335 14 317 304 302 305 294 279 285 259 249 255 240 236 230 232 229 229 215 206 200 198 198 181 188 184 173 177 184 180 179 213 232 245 349 337
264 277 281 255 270 282 282 262 249 43 42 198 110 211 210 257 285 323 313 307 303 290 271 265 266 245 240 232 231 233 232 217 208 203 203 195 193 186 175 166 183 221 203 204 213 193 183 175 106
230 251 254 284 256 274 289 286 244 59 328 297 305 356 300 274 300 304 308 288 289 295 293 265 260 255 243 236 230 230 226 218 216 202 194 191 186 180 181 194 210 187 194 200 180 183 161 148 87
264 258 254 251 267 264 277 273 293 288 242 282 226 292 313 294 297 305 297 298 288 284 286 282 272 271 248 236 236 237 227 226 212 189 187 192 187 178 169 181 173 188 180 165 165 160 150 113 83